Погода в Хмельниках

Россия / Ярославская область     56°56′24″N   39°17′37″E
темп.,
°C
ветер,
м/с
пор.,
м/с
влажн.,
%
обл.,
%
осадки,
мм/ч
давл.,
гПа
погр.,
м
16 июня, ср
ср1600:00+16сз228680 0.3 100912
03:00+15зсз229236 0.5 101021
06:00+16ссз410915 0.1 1010312
09:00+19ссз467562 0.1 1011726
12:00+20с57699 0.9 10121439
15:00+21с57465 0.9 10132021
18:00+20с47570 0.0 1014793
21:00+14сз11680 0.0 101611
17 июня, чт
чт1700:00+12сз35746 0.0 101879
03:00+10сз33690 0.0 102035
06:00+13ссз29735 0.0 1022272
09:00+17ссз46505 0.0 1023639
12:00+20ссз46435 0.0 10231800
15:00+22ссз574828 0.0 10232069
18:00+21сз366023 0.0 1024759
21:00+16зюз22715 0.0 102512
18 июня, пт
пт1800:00+13з22790 0.0 102618
03:00+12зюз22825 0.0 102714
06:00+15зюз127917 0.0 102776
09:00+21зюз236012 0.0 1027526
12:00+24з234719 0.0 10261674
15:00+26зюз34475 0.0 10251905
18:00+24зюз36605 0.0 1024440
21:00+19юз3677100 0.0 102582
19 июня, сб
сб1900:00+16зюз378110 0.0 1025111
03:00+15зюз410885 0.0 1026173
06:00+18зюз410825 0.0 1026268
09:00+23зюз57655 0.0 1026558
12:00+26зюз56545 0.0 10251428
15:00+27зюз45523 0.0 10241904
18:00+26юз46620 0.0 1023397
21:00+20юз36761 0.0 102495
20 июня, вс
вс2000:00+17юз35865 0.0 102472
03:00+16зюз37915 0.0 102599
06:00+18зюз378420 0.0 1025190
09:00+23зюз456255 0.0 1025599
12:00+26юз455124 0.0 10241343
15:00+27юз45480 0.0 10231742
18:00+26юз36590 0.0 1022406
21:00+20ююз35800 0.0 102268